Location: Shenandoah County Park
(38.9356°N, 78.4524°W)
Time: 14:13:03
(UTC-04:00)

Envisat - Pass Details

Date: 30 May 2024
Orbit: 762 x 764 km, 98.3° (Epoch: 14 June)

Event Time Altitude Azimuth Distance (km) Brightness Sun altitude
Rises 04:49:39 0° 8° (N) 3,233 7.1 -10.6°
Reaches altitude 10° 04:51:58 10° 6° (N) 2,303 6.2 -10.3°
Maximum altitude 04:56:58 61° 286° (WNW) 862 3.1 -9.5°
Drops below altitude 10° 05:01:56 10° 207° (SSW) 2,288 4.9 -8.8°
Enters shadow 05:02:26 - 206° (SSW) 2,489 5.1 -8.7°
